Location: Владивосток
(43.1151°N, 131.8856°E)
Time: 21:18:45
(UTC+10:00)

DX 1 - Pass Details

Date: 07 July 2022
Orbit: 617 x 629 km, 98.4° (Epoch: 11 August)

Event Time Altitude Azimuth Distance (km) Brightness Sun altitude
Rises 23:07:18 0° 5° (N) 2,927 ? -17.8°
Reaches altitude 10° 23:09:38 10° 356° (N) 2,013 ? -18.1°
Maximum altitude 23:13:37 35° 291° (WNW) 1,012 ? -18.4°
Drops below altitude 10° 23:17:34 10° 226° (SW) 1,992 ? -18.8°
Enters shadow 23:18:26 - 221° (SW) 2,327 ? -18.9°
